When you browse on this site, cookies collect data to enhance your experience and personalize the content and advertising you see.
Visit our Privacy Policy to learn more. By continuing to use the site, you agree to this use of cookies and data.
  • en Suisse
  • Liste des pays
  • À 7 jours
  • Température de l'eau
  • Carte satellitaire
  • Carte météo
  • Widgets météo
  • user-avatar
    Se connecter

    Météo par heure à Tomashhorod

    Ce jour, 17 Février, Dimanche

    Heure Température Précipitation Vent Pression Humidité
    00:00 +1°C° 0 mm 3 m/s 751 mmHg 92%
    01:00 +1°C° 0 mm 3 m/s 750 mmHg 91%
    02:00 0°C° 0 mm 3 m/s 750 mmHg 90%
    03:00 -1°C° 0 mm 4 m/s 750 mmHg 86%
    04:00 -1°C° 0 mm 4 m/s 749 mmHg 82%
    05:00 -1°C° 0 mm 4 m/s 749 mmHg 78%
    06:00 -1°C° 0 mm 4 m/s 749 mmHg 76%
    07:00 -1°C° 0 mm 4 m/s 749 mmHg 74%
    08:00 -1°C° 0 mm 4 m/s 748 mmHg 71%
    09:00 +1°C° 0 mm 5 m/s 748 mmHg 69%
    10:00 +2°C° 0 mm 5 m/s 748 mmHg 67%
    11:00 +3°C° 0 mm 5 m/s 748 mmHg 65%
    12:00 +5°C° 0 mm 5 m/s 748 mmHg 66%
    13:00 +6°C° 0 mm 5 m/s 749 mmHg 66%
    14:00 +7°C° 0 mm 5 m/s 749 mmHg 66%
    15:00 +6°C° 0 mm 5 m/s 749 mmHg 70%
    16:00 +6°C° 0 mm 5 m/s 749 mmHg 74%
    17:00 +5°C° 0 mm 4 m/s 749 mmHg 78%
    18:00 +5°C° 0 mm 4 m/s 749 mmHg 79%
    19:00 +4°C° 0 mm 4 m/s 749 mmHg 80%
    20:00 +4°C° 0 mm 4 m/s 749 mmHg 80%
    21:00 +3°C° 0 mm 4 m/s 749 mmHg 82%
    22:00 +3°C° 0 mm 3 m/s 750 mmHg 83%
    23:00 +3°C° 0 mm 3 m/s 750 mmHg 85%

    Demain, 18 Février, Lundi

    Heure Température Précipitation Vent Pression Humidité
    00:00 +3°C° 0 mm 3 m/s 750 mmHg 86%
    01:00 +3°C° 0 mm 3 m/s 750 mmHg 88%
    02:00 +3°C° 0 mm 2 m/s 750 mmHg 89%
    03:00 +3°C° 0 mm 2 m/s 750 mmHg 91%
    04:00 +3°C° 0 mm 2 m/s 751 mmHg 93%
    05:00 +3°C° 0 mm 2 m/s 751 mmHg 94%
    06:00 +3°C° 0 mm 1 m/s 751 mmHg 95%
    07:00 +3°C° 0 mm 1 m/s 751 mmHg 96%
    08:00 +2°C° 0 mm 1 m/s 751 mmHg 97%
    09:00 +3°C° 0 mm 1 m/s 752 mmHg 89%
    10:00 +4°C° 0 mm 1 m/s 752 mmHg 81%
    11:00 +5°C° 0 mm 1 m/s 752 mmHg 72%
    12:00 +6°C° 0 mm 1 m/s 752 mmHg 65%
    13:00 +6°C° 0 mm 1 m/s 752 mmHg 58%
    14:00 +7°C° 0 mm 1 m/s 752 mmHg 51%
    15:00 +6°C° 0 mm 1 m/s 752 mmHg 53%
    16:00 +6°C° 0 mm 1 m/s 752 mmHg 54%
    17:00 +5°C° 0 mm 1 m/s 752 mmHg 56%
    18:00 +4°C° 0 mm 1 m/s 752 mmHg 58%
    19:00 +3°C° 0 mm 1 m/s 752 mmHg 60%
    20:00 +2°C° 0 mm 1 m/s 752 mmHg 62%
    21:00 +2°C° 0 mm 1 m/s 752 mmHg 63%
    22:00 -1°C° 0 mm 2 m/s 753 mmHg 64%
    23:00 -1°C° 0 mm 2 m/s 753 mmHg 65%

    Après-demain, 19 Février, Mardi

    Heure Température Précipitation Vent Pression Humidité
    00:00 -1°C° 0 mm 2 m/s 753 mmHg 66%
    01:00 -1°C° 0 mm 2 m/s 753 mmHg 67%
    02:00 -2°C° 0 mm 2 m/s 753 mmHg 67%
    03:00 -2°C° 0 mm 2 m/s 753 mmHg 67%
    04:00 -2°C° 0 mm 2 m/s 752 mmHg 67%
    05:00 -2°C° 0 mm 2 m/s 752 mmHg 66%
    06:00 -1°C° 0 mm 2 m/s 752 mmHg 66%
    07:00 -1°C° 0 mm 3 m/s 752 mmHg 66%
    08:00 -1°C° 0 mm 3 m/s 752 mmHg 67%
    09:00 0°C° 0 mm 3 m/s 752 mmHg 65%
    10:00 +1°C° 0 mm 4 m/s 751 mmHg 64%
    11:00 +3°C° 0 mm 4 m/s 751 mmHg 63%
    12:00 +4°C° 0 mm 4 m/s 751 mmHg 63%
    13:00 +5°C° 0 mm 4 m/s 750 mmHg 64%
    14:00 +6°C° 0 mm 4 m/s 750 mmHg 64%
    15:00 +5°C° 0 mm 4 m/s 749 mmHg 69%
    16:00 +4°C° 0 mm 4 m/s 749 mmHg 74%
    17:00 +4°C° 0 mm 3 m/s 748 mmHg 79%
    18:00 +3°C° 0 mm 4 m/s 748 mmHg 82%
    19:00 +1°C° 0 mm 4 m/s 748 mmHg 85%
    20:00 +1°C° 0 mm 4 m/s 748 mmHg 88%
    21:00 +1°C° 0 mm 4 m/s 747 mmHg 89%
    22:00 0°C° 0 mm 4 m/s 747 mmHg 90%
    23:00 0°C° 0 mm 4 m/s 747 mmHg 92%

    20 Février, Mercredi

    Heure Température Précipitation Vent Pression Humidité
    00:00 0°C° 0 mm 4 m/s 747 mmHg 92%
    01:00 +1°C° 0 mm 3 m/s 746 mmHg 92%
    02:00 0°C° 0 mm 3 m/s 746 mmHg 92%
    03:00 0°C° 0 mm 3 m/s 746 mmHg 92%
    04:00 0°C° 0 mm 3 m/s 746 mmHg 92%
    05:00 0°C° 0 mm 3 m/s 745 mmHg 92%
    06:00 0°C° 0 mm 3 m/s 746 mmHg 92%
    07:00 +1°C° 0 mm 3 m/s 746 mmHg 91%
    08:00 0°C° 0 mm 4 m/s 746 mmHg 91%
    09:00 +1°C° 0 mm 4 m/s 746 mmHg 87%
    10:00 +3°C° 0 mm 4 m/s 746 mmHg 83%
    11:00 +4°C° 0 mm 4 m/s 747 mmHg 80%
    12:00 +5°C° 0 mm 5 m/s 747 mmHg 75%
    13:00 +5°C° 0 mm 5 m/s 747 mmHg 70%
    14:00 +5°C° 0 mm 6 m/s 747 mmHg 65%
    15:00 +6°C° 0 mm 5 m/s 747 mmHg 67%
    16:00 +5°C° 0 mm 5 m/s 747 mmHg 69%
    17:00 +5°C° 0 mm 4 m/s 747 mmHg 71%
    18:00 +4°C° 0.1 mm 4 m/s 747 mmHg 74%
    19:00 +4°C° 0.1 mm 4 m/s 747 mmHg 77%
    20:00 +3°C° 0.1 mm 3 m/s 747 mmHg 80%
    21:00 +3°C° 0 mm 4 m/s 747 mmHg 79%
    22:00 +3°C° 0 mm 4 m/s 747 mmHg 78%
    23:00 +1°C° 0 mm 4 m/s 747 mmHg 76%

    21 Février, Jeudi

    Heure Température Précipitation Vent Pression Humidité
    00:00 +1°C° 0 mm 4 m/s 747 mmHg 78%
    01:00 +1°C° 0 mm 4 m/s 747 mmHg 79%
    02:00 0°C° 0 mm 4 m/s 747 mmHg 81%
    03:00 0°C° 0 mm 4 m/s 747 mmHg 83%
    04:00 0°C° 0 mm 4 m/s 747 mmHg 85%
    05:00 0°C° 0 mm 4 m/s 747 mmHg 87%
    06:00 0°C° 0 mm 4 m/s 747 mmHg 89%
    07:00 0°C° 0 mm 4 m/s 747 mmHg 90%
    08:00 0°C° 0 mm 4 m/s 747 mmHg 92%
    09:00 +1°C° 0 mm 4 m/s 747 mmHg 86%
    10:00 +2°C° 0 mm 5 m/s 748 mmHg 80%
    11:00 +3°C° 0 mm 5 m/s 748 mmHg 74%
    12:00 +3°C° 0.1 mm 5 m/s 747 mmHg 77%
    13:00 +3°C° 0.1 mm 5 m/s 747 mmHg 79%
    14:00 +4°C° 0.1 mm 4 m/s 747 mmHg 81%
    15:00 +4°C° 0.2 mm 4 m/s 747 mmHg 83%
    16:00 +4°C° 0.2 mm 4 m/s 747 mmHg 86%
    17:00 +4°C° 0.2 mm 3 m/s 747 mmHg 88%
    18:00 +4°C° 0.3 mm 3 m/s 747 mmHg 90%
    19:00 +3°C° 0.3 mm 3 m/s 747 mmHg 91%
    20:00 +4°C° 0.3 mm 2 m/s 747 mmHg 93%
    21:00 +4°C° 0.2 mm 2 m/s 747 mmHg 93%
    22:00 +3°C° 0.2 mm 2 m/s 747 mmHg 93%
    23:00 +3°C° 0.2 mm 2 m/s 748 mmHg 92%

    22 Février, Vendredi

    Heure Température Précipitation Vent Pression Humidité
    00:00 +3°C° 0.2 mm 2 m/s 748 mmHg 90%
    01:00 +2°C° 0.2 mm 2 m/s 748 mmHg 88%
    02:00 0°C° 0.2 mm 3 m/s 747 mmHg 86%
    03:00 0°C° 0.2 mm 3 m/s 747 mmHg 86%
    04:00 -1°C° 0.2 mm 3 m/s 747 mmHg 87%
    05:00 -1°C° 0.2 mm 3 m/s 747 mmHg 87%
    06:00 -3°C° 0.4 mm 4 m/s 748 mmHg 86%
    07:00 -3°C° 0.4 mm 4 m/s 748 mmHg 86%
    08:00 -4°C° 0.4 mm 4 m/s 748 mmHg 86%
    09:00 -5°C° 0.2 mm 5 m/s 749 mmHg 82%
    10:00 -5°C° 0.2 mm 5 m/s 749 mmHg 78%
    11:00 -5°C° 0.2 mm 5 m/s 750 mmHg 75%
    12:00 -5°C° 0.1 mm 5 m/s 751 mmHg 70%
    13:00 -6°C° 0.1 mm 6 m/s 751 mmHg 66%
    14:00 -6°C° 0.1 mm 6 m/s 752 mmHg 62%
    15:00 -6°C° 0 mm 6 m/s 753 mmHg 58%
    16:00 -8°C° 0 mm 6 m/s 754 mmHg 55%
    17:00 -8°C° 0 mm 6 m/s 754 mmHg 52%
    18:00 -8°C° 0 mm 5 m/s 755 mmHg 52%
    19:00 -8°C° 0 mm 5 m/s 756 mmHg 51%
    20:00 -10°C° 0 mm 5 m/s 757 mmHg 51%
    21:00 -10°C° 0 mm 5 m/s 758 mmHg 52%
    22:00 -9°C° 0 mm 4 m/s 759 mmHg 53%
    23:00 -9°C° 0 mm 4 m/s 760 mmHg 54%
    Voir plus